Location: Castelbiague
(43.0361°N, 0.9246°E)
Time: 13:33:21
(UTC+00:00)

Spot 2 Rocket - Pass Details

Date: 17 June 2021
Orbit: 757 x 772 km, 98.5° (Epoch: 30 July)

Event Time Altitude Azimuth Distance (km) Brightness Sun altitude
Exits shadow 20:40:28 12° 138° (SE) 2,132 5.1 -9.6°
Maximum altitude 20:44:48 44° 69° (ENE) 1,057 4.1 -10.2°
Drops below altitude 10° 20:49:36 10° 359° (N) 2,312 6.7 -10.8°
Sets 20:52:00 0° 353° (N) 3,245 7.7 -11.1°
